Weather History for Olathe New Century, KS

Change the Weather History Date:

Saturday, January 19, 2013

  Actual Average Record
Temperature  
Mean Temperature 46 °F -  
Max Temperature 60 °F 37 °F 62 °F (2014)
Min Temperature 30 °F 19 °F -2 °F (2008)
Degree Days  
Heating Degree Days 18    
Moisture  
Dew Point 28 °F    
Average Humidity 52    
Maximum Humidity 79    
Minimum Humidity 26    
Precipitation  
Precipitation 0.00 in - - ()
Sea Level Pressure  
Sea Level Pressure 30.08 in    
Wind  
Wind Speed 15 mph (WSW)    
Max Wind Speed 23 mph    
Max Gust Speed 29 mph    
Visibility 10 miles    
Events      
Averages and records for this station are not official NWS values.
T = Trace of Precipitation, MM = Missing Value Source: NWS Daily Summary

Daily Weather History Graph

Daily Weather History Graph

Search for Another Location

Airport:

Trip Planner

Search our weather history database for the weather conditions in past years. The results will help you decide how hot, cold, wet, or windy it might be!

Date:

Astronomy

Jan. 19, 2013 Rise Set
Actual Time 7:34 AM CST 5:26 PM CST
Civil Twilight 7:05 AM CST 5:55 PM CST
Nautical Twilight 6:33 AM CST 6:28 PM CST
Astronomical Twilight 6:01 AM CST 6:59 PM CST
Moon 11:52 AM CST (1/19) 1:10 AM CST (1/19)
Length of Visible Light 10h 49m
Length of Day
9h 51m
First Quarter, 57% of the Moon is Illuminated
Jan 19
First Quarter
Jan 26
Full
Feb 3
Last Quarter
Feb 10
New
Feb 17
First Quarter

Hourly Weather History & Observations

Time (CST) Temp. Windchill Dew Point Humidity Pressure Visibility Wind Dir Wind Speed Gust Speed Precip Events Conditions
12:53 AM 45.0 °F 36.4 °F 28.9 °F 53% 30.03 in 10.0 mi SSW 23.0 mph - N/A   Clear
1:53 AM 43.0 °F 35.4 °F 28.9 °F 58% 30.03 in 10.0 mi SSW 16.1 mph - N/A   Clear
2:53 AM 42.1 °F 33.3 °F 28.9 °F 60% 30.02 in 10.0 mi SSW 19.6 mph - N/A   Clear
3:53 AM 41.0 °F 32.2 °F 28.9 °F 62% 30.01 in 10.0 mi SSW 18.4 mph 26.5 mph N/A   Clear
4:53 AM 41.0 °F 31.9 °F 30.0 °F 65% 29.99 in 10.0 mi SSW 19.6 mph - N/A   Clear
5:53 AM 41.0 °F 32.2 °F 30.0 °F 65% 29.99 in 10.0 mi SSW 18.4 mph 28.8 mph N/A   Clear
6:53 AM 41.0 °F 31.9 °F 30.0 °F 65% 30.00 in 10.0 mi SSW 19.6 mph 25.3 mph N/A   Clear
7:53 AM 39.0 °F 29.6 °F 30.0 °F 70% 30.02 in 10.0 mi SSW 18.4 mph - N/A   Clear
8:53 AM 39.9 °F 31.4 °F 30.0 °F 68% 30.01 in 10.0 mi SSW 16.1 mph - N/A   Clear
9:53 AM 44.1 °F 38.6 °F 30.9 °F 60% 30.06 in 10.0 mi SW 10.4 mph - N/A   Clear
10:53 AM 50.0 °F - 30.0 °F 46% 30.05 in 10.0 mi SW 15.0 mph 19.6 mph N/A   Clear
11:53 AM 52.0 °F - 28.9 °F 41% 30.05 in 10.0 mi WSW 12.7 mph - N/A   Clear
12:53 PM 55.9 °F - 28.9 °F 36% 30.03 in 10.0 mi West 9.2 mph - N/A   Clear
1:53 PM 59.0 °F - 27.0 °F 29% 30.03 in 10.0 mi West 10.4 mph - N/A   Clear
2:53 PM 60.1 °F - 25.0 °F 26% 30.02 in 10.0 mi West 10.4 mph - N/A   Clear
3:53 PM 59.0 °F - 25.0 °F 27% 30.04 in 10.0 mi West 13.8 mph - N/A   Clear
4:53 PM 57.0 °F - 26.1 °F 30% 30.06 in 10.0 mi West 8.1 mph - N/A   Clear
5:53 PM 50.0 °F - 26.1 °F 39% 30.10 in 10.0 mi WNW 4.6 mph - N/A   Clear
6:53 PM 48.9 °F - 26.1 °F 41% 30.14 in 10.0 mi NW 6.9 mph - N/A   Clear
7:53 PM 45.0 °F 41.2 °F 26.1 °F 48% 30.18 in 10.0 mi NW 6.9 mph - N/A   Clear
8:53 PM 41.0 °F 39.0 °F 26.1 °F 55% 30.21 in 10.0 mi NNW 3.5 mph - N/A   Clear
9:53 PM 34.0 °F 28.8 °F 24.1 °F 67% 30.24 in 10.0 mi NNW 5.8 mph - N/A   Clear
10:53 PM 33.1 °F 30.0 °F 24.1 °F 70% 30.26 in 10.0 mi NNW 3.5 mph - N/A   Clear
11:53 PM 30.0 °F 22.4 °F 24.1 °F 79% 30.27 in 10.0 mi North 8.1 mph - N/A   Clear